Reflectivity
-20 -20 -20 -20 -20 -20 -20 -20 -20 -20 -20 -20 -20 -20 -20 -20 -20 -20 -20 -20 -20 -20 -20 -20 -20 -20 -20 -20 -20 -20 -20 -20
-20 -20 -20 -20 -20 -20 -20 -20 -20 -20 -20 -20 -20 -20 -20 -20 -20 -20 -20 -20 -20 -20 -20 -20 -20 -20 -20 -20 -20 -20 -20 -20
-20 -20 -20 -20 -20 -20 -20 -20 -20 -20 -20 -20 -20 -20 -20 -20 -20 -20 -20 -20 -20 -20 -20 -20 -20 -20 -20 -20 -20 -20 -20 -20
-20 -20 -20 -20 -20 -20 -20 -20 -20 -20 -20 -20 -20 -20 -20 -20 -20 -20 -20 -20 -20 -20 -20 -20 -20 -20 -20 -20 -20 -20 -20 -20
-20 -20 -20 -20 -20 -20 -20 -20 -20 -20 -20 -20 -20 -20 -20 -20 -20 -20 -20 -20 -20 -20 -20 -20 -20 -20 -20 -20 -20 -20 -20 -20
-20 -20 -20 -20 -20 -20 -20 -20 -20 -20 -20 -20 -20 -20 -20 -20 -20 -20 -20 -20 -20 -20 -20 -20 -20 -13 -20 -10 -20 -20 -20 -20
-20 -20 -20 -20 -20 -20 -20 -20 -20 -20 -20 -20 -20 -20 -20 -20 -20 -20 -20 -20 -20 -20 -12 -20 -20 -20 -20 -20 -20 -20 -20 -20
-20 -20 -20 -20 -20 -20 -20 -20 -20 -20 -20 -20 -20 -20 -20 -20 -20 -20 -20 -20 -17 -20 -13 -20 -20 -20 -20 -20 -16 -20 -20 -20
-20 -20 -20 -20 -20 -20 -20 -20 -20 -20 -20 -20 -20 -20 -20 -20 -20 -20 -20 -20 -20 -20 -20 -20 -20 -20 -8 -20 -20 -20 -20 -20
-20 -20 -20 -20 -20 -20 -20 -20 -20 -20 -20 -20 -20 -20 -20 -20 -20 -20 -18 -20 -20 -20 -20 -4 -5 -12 -4 -20 -20 -20 -20 -20
-20 -20 -20 -20 -20 -20 -20 -20 -20 -20 -20 -20 -20 -20 -20 -20 -20 -20 -19 -20 -20 -20 -19 -15 -20 -19 -19 -20 -20 -20 -20 -20
-20 -20 -20 -20 -20 -20 -20 -20 -20 -20 -20 -20 -20 -20 -20 -20 -20 -20 -14 -20 -20 -20 -14 -7 -13 -20 -2 -20 -20 -20 -20 -20
-20 -20 -20 -20 -20 -20 -20 -20 -20 -20 -20 -20 -20 -20 -20 -20 -20 -20 -20 -5 -12 -20 -0 5 -10 -20 -19 -20 -20 -20 -20 -20
-20 -20 -20 -20 -20 -20 -20 -20 -20 -20 -20 -20 -20 -20 -20 -20 -20 -20 -1 -0 -17 -17 -1 8 -13 -19 13 2 -18 -20 -20 -20
-20 -20 -20 -20 -20 -20 -20 -20 -20 -20 -20 -20 -20 -20 -20 -20 -20 -20 -2 1 -16 2 4 8 10 1 -18 13 8 -20 -20 -20
-20 -20 -20 -20 -20 -20 -20 -20 -20 -20 -20 -20 -20 -20 -20 -20 -20 -20 -20 1 -20 -7 -19 9 11 8 1 6 11 15 10 -20
-20 -20 -20 -20 -20 -20 -20 -20 -20 -20 -20 -20 -20 -20 -20 -20 -20 -20 -20 -3 -0 2 3 11 14 11 6 7 5 6 12 11
-20 -20 -20 -20 -20 -20 -20 -20 -20 -20 -20 -20 -20 -20 -20 -20 -20 -20 -20 -1 -3 3 8 12 8 6 8 8 9 9 5 9
-20 -20 -20 -20 -20 -20 -20 -20 -20 -20 -20 -20 -20 -20 -20 -20 -20 -20 -20 -20 -9 4 9 9 9 10 9 9 11 10 13 10
-20 -20 -20 -20 -20 -20 -20 -20 -20 -20 -20 -20 -20 -20 -20 -20 -20 -20 -20 -20 -20 1 4 9 8 13 15 13 13 19 17 12
Wind_Speed
6 6 7 9 8 7 9 9 7 8 9 10 11 13 13 16 17 17 18 19 18 18 17 17 17 17 16 18 18 18 14 8
5 4 5 5 6 8 9 7 9 10 10 10 11 10 13 15 17 18 19 18 17 18 18 18 18 18 17 17 18 18 10 11
3 4 4 4 5 6 7 8 9 9 8 10 6 7 10 13 16 18 18 18 17 18 18 18 18 16 16 16 17 7 10 8
3 4 4 3 4 4 5 5 5 5 6 6 6 7 9 11 13 16 16 17 17 17 17 18 13 9 8 12 6 9 9 9
4 4 3 3 4 3 3 2 3 4 6 6 6 7 7 7 7 7 8 12 8 11 10 8 12 10 10 10 10 10 7 7
4 4 4 4 3 3 3 3 3 3 5 7 6 6 8 9 7 9 8 7 10 9 7 10 11 11 11 12 13 10 7 7
5 5 5 3 4 3 3 3 3 4 5 7 7 8 8 8 8 8 8 8 8 9 8 9 11 11 11 12 12 13 13 8
6 6 4 4 4 4 3 3 4 4 5 7 9 8 8 8 8 8 8 8 8 7 8 9 9 11 12 12 13 13 13 13
7 6 5 4 4 3 3 3 3 4 5 8 9 9 9 9 7 8 8 9 9 8 9 9 10 10 13 12 11 13 12 13
7 5 5 5 4 3 3 3 3 4 6 7 9 9 10 8 8 8 9 7 7 8 8 10 9 8 12 11 11 12 14 13
7 6 6 5 4 3 3 3 3 5 6 7 10 10 10 9 8 8 9 7 7 8 9 10 9 9 11 12 12 11 12 9
7 5 5 3 1 1 2 2 2 5 6 8 11 9 11 10 8 10 8 7 8 8 10 10 10 9 10 12 12 11 9 8
6 6 5 3 3 4 2 3 4 5 6 9 10 11 11 10 8 9 9 9 9 9 9 11 9 9 10 10 11 9 9 2
7 6 5 4 3 3 2 3 3 4 5 8 10 11 12 11 11 9 10 9 10 10 11 9 10 9 6 11 6 7 2 12
7 6 6 5 5 2 3 2 3 4 6 7 9 12 12 11 11 10 10 9 8 10 10 12 10 10 9 5 4 4 12 2
7 6 6 5 5 4 5 5 6 6 6 7 9 11 11 12 12 11 11 9 9 10 10 10 9 10 8 6 9 9 5 7
7 7 5 5 5 5 5 7 5 6 7 12 11 11 11 12 12 12 11 9 11 12 12 12 9 9 8 8 9 8 9 7
7 6 5 5 4 5 6 7 9 9 11 10 10 10 9 12 13 12 11 12 12 11 13 12 10 9 8 9 8 7 6 7
6 5 5 4 5 5 6 7 10 11 11 10 12 10 10 11 13 13 11 13 13 13 12 12 10 10 11 9 8 8 8 8
7 6 4 4 5 6 5 7 7 7 9 9 9 9 10 13 12 13 14 15 14 13 10 10 11 10 13 11 9 9 8 8
Wind_Direction
56 45 43 41 47 50 39 29 38 43 34 29 23 14 9 0 355 349 348 345 340 340 334 330 326 324 325 321 318 315 316 310
69 64 49 43 39 52 35 38 62 48 34 35 29 14 3 358 352 352 349 347 345 341 336 331 327 325 321 318 315 309 306 308
89 71 59 44 58 48 42 59 61 49 44 33 16 7 351 354 352 351 349 345 345 340 336 330 327 318 316 318 316 305 306 300
106 79 60 56 68 52 63 82 60 54 46 28 10 359 351 350 349 348 346 343 340 337 332 328 321 319 314 315 313 312 297 295
121 88 63 77 68 57 62 94 52 65 43 20 4 349 352 354 345 344 340 341 337 331 326 325 325 319 317 314 313 308 300 294
123 94 97 75 76 63 70 60 57 51 32 11 357 351 351 353 347 341 336 335 329 328 322 329 317 311 308 308 309 304 297 293
120 103 101 85 81 68 63 61 65 49 20 13 1 355 354 343 340 334 331 329 326 329 323 313 312 311 306 298 289 288 288 287
125 118 111 94 81 64 68 84 80 40 19 10 5 358 352 341 334 331 327 330 335 310 305 305 304 297 294 297 295 291 288 285
136 131 112 100 87 67 66 73 61 26 7 8 6 359 346 338 332 331 330 338 313 308 306 301 301 305 308 294 290 286 281 280
147 133 122 100 78 61 74 83 52 16 6 2 360 353 349 336 334 333 341 320 314 310 309 311 310 302 292 300 295 290 284 280
141 133 116 102 87 79 82 102 33 11 12 5 358 355 349 339 336 335 339 317 311 310 312 306 304 297 302 299 296 284 284 276
135 124 104 89 60 116 86 54 8 12 17 12 6 357 349 344 338 342 324 312 314 314 308 306 298 297 306 295 295 285 274 268
131 115 69 22 357 343 320 351 356 11 11 12 7 2 355 345 341 336 324 324 321 313 308 303 306 308 307 312 299 278 274 247
118 102 80 46 18 6 329 340 334 357 360 6 2 356 358 348 339 329 326 324 321 322 316 313 309 320 308 306 317 311 202 314
126 105 81 50 19 2 356 317 319 342 357 354 356 358 350 341 333 330 328 326 319 313 312 312 308 312 318 306 297 302 324 252
124 105 77 55 26 21 12 1 357 349 339 342 349 346 339 340 333 333 328 328 319 314 315 311 309 307 309 288 280 280 287 303
119 104 80 56 37 11 2 8 344 338 346 344 339 339 341 340 335 332 332 328 327 321 320 317 306 305 301 297 286 273 259 261
124 111 79 52 27 24 16 3 358 1 358 343 343 340 340 343 339 335 331 331 335 320 311 313 317 305 293 284 276 276 266 263
126 113 76 45 31 22 13 4 12 9 356 347 344 343 343 341 339 338 337 338 332 316 322 317 313 305 297 289 279 265 263 257
130 110 92 53 28 22 11 16 15 8 356 351 348 343 336 336 339 338 341 345 335 337 325 322 318 309 300 291 281 274 259 248